Lid_Strength_Index
1 1 0 0 0 -0 -0 -0 -0 -0 -0 -0 -1 -1 -0 -0 0 2 6 3 2 -2 -0 5 6 7 7 8 7 9 13 15 14 13 12 10 11 10 10 11 11 10 11 9 8
1 1 0 0 0 -0 -0 -0 -0 -0 -1 -1 -1 -1 -1 -0 3 5 1 -3 -3 -3 5 7 8 7 9 9 8 11 14 13 11 12 12 10 11 11 12 11 12 11 10 8 7
1 1 0 0 0 0 -0 -0 -1 -1 -1 -1 -1 -0 -0 1 7 7 -0 -2 -3 -1 4 6 6 7 10 10 9 10 13 11 10 10 10 10 11 10 12 12 11 11 11 10 9
0 0 1 0 0 0 -0 -1 -1 -1 -1 -0 -0 -0 -0 3 12 5 -1 -2 -2 3 5 7 8 10 11 11 9 12 9 10 9 9 10 11 10 10 10 10 9 10 10 10 10
0 1 1 1 1 0 -0 -0 -1 -1 -1 -0 -0 -0 3 8 7 1 -1 -1 3 5 7 8 9 10 11 11 11 12 11 10 9 9 10 10 11 11 10 9 9 9 10 11 11
0 1 1 1 0 0 -0 -1 -1 -1 -0 0 0 0 6 11 3 1 2 3 5 6 8 8 9 8 10 11 12 12 11 11 10 10 11 11 12 12 10 11 10 10 11 11 11
1 1 1 1 0 -0 -0 -1 -1 -1 0 -0 -0 2 6 9 3 2 3 5 5 6 8 7 8 9 10 12 10 11 13 12 12 12 12 12 13 13 10 11 11 11 12 11 11
1 2 2 2 1 1 1 0 -0 -0 0 1 0 4 10 6 6 4 5 7 6 6 7 7 7 8 10 10 11 13 14 16 12 12 12 12 15 11 10 12 11 12 13 12 12
1 1 1 1 1 1 0 0 0 1 1 1 4 7 10 5 7 7 7 7 7 7 8 7 8 11 11 14 16 15 18 16 14 12 12 14 15 12 11 12 12 14 14 13 13
2 2 2 2 1 1 1 1 1 2 2 2 3 10 9 10 8 8 8 7 9 9 10 10 12 14 15 16 18 17 17 16 16 13 14 15 15 13 12 12 13 15 15 15 15
2 2 2 2 2 1 1 5 7 7 6 8 9 10 9 9 8 9 8 8 9 11 14 13 15 16 15 14 14 16 16 17 15 13 15 15 15 13 13 14 15 15 15 15 15
2 2 2 1 1 1 3 7 7 7 9 7 7 8 8 9 11 10 9 11 12 14 14 15 17 14 14 14 15 16 17 17 15 14 15 15 15 15 14 14 14 14 15 15 15
2 2 2 2 2 3 5 7 6 7 10 8 7 8 9 7 9 10 10 12 13 15 15 16 14 12 13 14 14 15 16 16 15 15 15 17 17 16 14 14 14 14 14 14 15
2 1 1 1 4 4 6 6 6 7 13 12 10 10 10 9 12 10 10 11 13 14 14 14 12 13 14 14 14 16 14 14 15 17 19 17 20 17 15 15 15 15 15 15 15
2 2 2 2 5 5 5 6 6 8 19 11 12 10 11 11 12 12 11 12 13 13 13 14 14 14 14 13 13 14 14 15 16 18 19 18 19 17 15 16 16 15 15 15 14
3 2 2 2 3 4 5 6 6 13 19 14 13 13 14 13 13 12 12 12 12 14 14 14 13 13 13 13 13 13 15 15 17 18 21 18 18 18 16 15 15 15 15 14 14
3 3 3 2 4 5 4 5 13 17 12 15 15 14 14 15 14 13 14 15 15 17 17 15 14 13 12 14 14 14 16 19 20 21 20 16 18 16 14 13 14 15 15 14 14
2 3 3 2 3 3 4 9 17 13 13 12 13 13 15 14 14 14 15 16 14 14 15 16 17 14 13 13 14 15 15 19 24 22 20 16 18 16 14 14 14 14 14 14 15
4 5 4 3 3 3 7 15 14 12 11 12 12 15 14 12 13 15 15 15 13 13 15 16 16 14 14 14 12 15 16 14 17 17 18 17 17 14 14 14 14 14 14 14 14
7 7 7 4 2 4 10 13 11 9 10 10 14 12 15 12 13 15 15 13 13 12 12 13 17 13 13 13 14 14 13 17 17 24 22 18 17 16 15 15 14 14 14 13 13
7 9 7 4 4 8 13 12 11 9 9 11 12 12 13 13 12 14 13 13 13 13 11 12 14 15 13 14 14 15 15 15 13 16 21 23 18 13 13 13 14 13 13 13 13
9 12 6 5 11 11 13 11 10 10 9 10 10 11 12 12 13 14 14 13 11 11 12 11 13 18 15 13 12 12 13 13 16 18 17 17 16 11 11 12 12 12 12 12 12
10 11 6 6 13 14 12 12 11 12 11 11 12 11 11 12 14 14 14 11 11 11 12 11 16 22 18 15 13 14 13 12 13 15 19 19 17 12 12 12 12 11 11 12 12
11 14 11 9 10 12 13 13 13 11 11 11 12 11 12 13 12 14 13 11 11 11 8 9 15 17 18 17 15 16 14 13 15 20 20 16 16 13 12 12 12 12 11 12 13
11 13 12 14 12 12 11 12 13 13 11 10 12 12 12 14 14 14 13 13 12 9 11 11 17 14 15 15 15 16 15 14 15 15 18 16 16 13 12 12 12 11 11 12 13
13 14 13 13 10 11 11 13 13 12 12 13 13 12 11 13 13 15 13 14 14 13 13 14 20 18 21 16 14 16 15 15 14 14 14 13 14 10 11 13 14 13 12 12 13
10 11 12 12 13 13 13 13 13 11 12 11 11 12 12 11 11 12 12 13 13 14 15 16 19 21 21 18 19 23 20 16 15 15 15 17 14 16 14 13 13 13 14 14 14